Overview Statistics Trail Chart Weather Telemetry Raw packets
 

This is the latest recevied weather packets stored in our database for station/object SV9TNF-57. If no packets are shown the sender has not sent any weather packets the latest 10 day(s).

<< 33 34 35 36 37 38 39 >>
Time Temp. Humidity Pressure Rain* Wind** Luminosity Snow
1788434051 31.67° C 40% 992.8 hPa 0 mm 4.47 m/s, 312° - -
1788433751 31.67° C 39% 992.9 hPa 0 mm 6.71 m/s, 272° - -
1788433451 32.22° C 39% 992.8 hPa 0 mm 2.24 m/s, 306° - -
1788433151 31.67° C 39% 992.8 hPa 0 mm 4.92 m/s, 313° - -
1788432851 31.67° C 41% 992.9 hPa 0 mm 2.68 m/s, 290° - -
1788432551 32.22° C 39% 992.9 hPa 0 mm 7.15 m/s, 202° - -
1788432251 31.67° C 37% 992.9 hPa 0 mm 9.83 m/s, 0° - -
1788431951 32.78° C 37% 992.9 hPa 0 mm 2.24 m/s, 287° - -
1788431650 32.22° C 37% 992.9 hPa 0 mm 0.89 m/s, 123° - -
1788431351 31.67° C 38% 993.1 hPa 0 mm 1.34 m/s, 297° - -
1788431050 32.22° C 37% 993.2 hPa 0 mm 9.39 m/s, 330° - -
1788430750 32.78° C 37% 993.1 hPa 0 mm 2.24 m/s, 258° - -
1788430450 32.78° C 37% 993.4 hPa 0 mm 1.34 m/s, 311° - -
1788430150 32.22° C 39% 993.2 hPa 0 mm 8.05 m/s, 328° - -
1788429850 31.67° C 40% 993.2 hPa 0 mm 4.02 m/s, 321° - -
1788429550 31.11° C 43% 993.1 hPa 0 mm 5.36 m/s, 330° - -
1788429249 31.67° C 42% 993.2 hPa 0 mm 13.86 m/s, 325° - -
1788428949 32.22° C 39% 993.2 hPa 0 mm 1.79 m/s, 96° - -
1788428650 31.67° C 38% 993.1 hPa 0 mm 2.68 m/s, 343° - -
1788428349 31.67° C 37% 993.4 hPa 0 mm 12.52 m/s, 305° - -
1788428049 32.22° C 36% 993.2 hPa 0 mm 2.68 m/s, 323° - -
1788427749 31.67° C 36% 993.3 hPa 0 mm 4.92 m/s, 319° - -
1788427449 31.67° C 37% 993.3 hPa 0 mm 6.71 m/s, 49° - -
1788427149 31.67° C 37% 993 hPa 0 mm 5.81 m/s, 319° - -
1788426849 31.11° C 36% 993.1 hPa 0 mm 6.26 m/s, 269° - -

* Rain latest hour (hover to see other rain measurements)
** Current wind speed in m/s (hover to see current wind gust speed)